| time (UTC) | temp C | wind direction | speed KPH | gust KPH | rain 1hr cm | rain 24hr cm | rain mn cm | humidity % | barometer mb |
| 20260902031538 | 17 | 49 | 4.8 | 14.5 | 0.00 | 0.00 | 0.00 | 61 | 1011.4 |
| 20260902030031 | 17 | 51 | 3.2 | 11.3 | 0.00 | 0.00 | 0.00 | 60 | 1011.5 |
| 20260902024530 | 17 | 47 | 3.2 | 16.1 | 0.00 | 0.00 | 0.00 | 58 | 1011.5 |
| 20260902023032 | 17 | 47 | 3.2 | 17.7 | 0.00 | 0.00 | 0.00 | 58 | 1011.4 |
| 20260902021533 | 17 | 39 | 4.8 | 17.7 | 0.00 | 0.00 | 0.00 | 57 | 1011.3 |
| 20260902020030 | 17 | 39 | 4.8 | 22.5 | 0.00 | 0.00 | 0.00 | 56 | 1011.1 |
| 20260902014531 | 18 | 46 | 3.2 | 11.3 | 0.00 | 0.00 | 0.00 | 56 | 1011.0 |
| 20260902013033 | 18 | 48 | 3.2 | 14.5 | 0.00 | 0.00 | 0.00 | 55 | 1010.8 |
| 20260902010030 | 18 | 45 | 4.8 | 16.1 | 0.00 | 0.00 | 0.00 | 55 | 1010.3 |
| 20260902001537 | 20 | 44 | 4.8 | 17.7 | 0.00 | 0.00 | 0.00 | 50 | 1010.3 |
| 20260902000032 | 21 | 47 | 4.8 | 14.5 | 0.00 | 0.00 | 0.00 | 50 | 1010.3 |
| 20260901234532 | 21 | 41 | 3.2 | 17.7 | 0.00 | 0.00 | 0.00 | 50 | 1010.3 |
| 20260901233106 | 20 | 46 | 4.8 | 12.9 | 0.00 | 0.00 | 0.00 | 51 | 1010.5 |
| 20260901231533 | 21 | 48 | 3.2 | 14.5 | 0.00 | 0.00 | 0.00 | 49 | 1010.4 |
| 20260901230031 | 21 | 42 | 4.8 | 20.9 | 0.00 | 0.00 | 0.00 | 47 | 1010.4 |
| 20260901224532 | 22 | 48 | 4.8 | 19.3 | 0.00 | 0.00 | 0.00 | 45 | 1010.3 |
| 20260901223107 | 23 | 49 | 4.8 | 17.7 | 0.00 | 0.00 | 0.00 | 44 | 1010.3 |
| 20260901221650 | 24 | 40 | 4.8 | 12.9 | 0.00 | 0.00 | 0.00 | 43 | 1010.2 |
| 20260901220041 | 24 | 36 | 4.8 | 14.5 | 0.00 | 0.00 | 0.00 | 42 | 1010.0 |
| 20260901213030 | 25 | 35 | 3.2 | 14.5 | 0.00 | 0.00 | 0.00 | 42 | 1010.2 |
| 20260901210105 | 25 | 49 | 3.2 | 8.0 | 0.00 | 0.00 | 0.00 | 41 | 1010.3 |
| 20260901204531 | 25 | 46 | 1.6 | 9.7 | 0.00 | 0.00 | 0.00 | 41 | 1010.6 |
| 20260901203031 | 25 | 41 | 3.2 | 14.5 | 0.00 | 0.00 | 0.00 | 40 | 1010.7 |
| 20260901201530 | 25 | 40 | 1.6 | 9.7 | 0.00 | 0.00 | 0.00 | 40 | 1010.9 |
| 20260901194531 | 25 | 38 | 1.6 | 8.0 | 0.00 | 0.00 | 0.00 | 41 | 1011.3 |
| 20260901193030 | 25 | 45 | 1.6 | 6.4 | 0.00 | 0.00 | 0.00 | 41 | 1011.5 |
| 20260901191531 | 25 | 56 | 1.6 | 11.3 | 0.00 | 0.00 | 0.00 | 43 | 1011.7 |
| 20260901190106 | 23 | 44 | 1.6 | 9.7 | 0.00 | 0.00 | 0.00 | 45 | 1011.8 |
| 20260901183034 | 22 | 18 | 0.0 | 4.8 | 0.00 | 0.00 | 0.00 | 48 | 1012.0 |
| 20260901181530 | 21 | 45 | 0.0 | 4.8 | 0.00 | 0.00 | 0.00 | 51 | 1012.1 |
| 20260901180108 | 21 | 43 | 1.6 | 14.5 | 0.00 | 0.00 | 0.00 | 53 | 1012.1 |
| 20260901174531 | 20 | 49 | 1.6 | 8.0 | 0.00 | 0.00 | 0.00 | 56 | 1012.0 |
| 20260901173107 | 18 | 39 | 1.6 | 11.3 | 0.00 | 0.00 | 0.00 | 59 | 1012.0 |
| 20260901171530 | 18 | 34 | 1.6 | 8.0 | 0.00 | 0.00 | 0.00 | 59 | 1012.0 |
| 20260901170031 | 18 | 21 | 3.2 | 11.3 | 0.00 | 0.00 | 0.00 | 60 | 1012.0 |
| 20260901164530 | 17 | 34 | 1.6 | 8.0 | 0.00 | 0.00 | 0.00 | 62 | 1012.1 |
| 20260901161528 | 17 | 36 | 1.6 | 6.4 | 0.00 | 0.00 | 0.00 | 64 | 1012.2 |
| 20260901160031 | 16 | 39 | 0.0 | 3.2 | 0.00 | 0.00 | 0.00 | 66 | 1012.2 |
| 20260901154608 | 16 | 31 | 1.6 | 8.0 | 0.00 | 0.00 | 0.00 | 68 | 1012.0 |
| 20260901153033 | 15 | 29 | 1.6 | 4.8 | 0.00 | 0.00 | 0.00 | 70 | 1012.0 |
| 20260901150031 | 13 | 4 | 0.0 | 1.6 | 0.00 | 0.00 | 0.00 | 68 | 1011.8 |
| 20260901144530 | -17 | 0 | 0.0 | 0.0 | 0.00 | 0.00 | 0.00 | 100 | |
| 20260901143031 | -17 | 0 | 0.0 | 0.0 | 0.00 | 0.00 | 0.00 | 100 | |
| 20260901140031 | 11 | 225 | 3.2 | 4.8 | 0.00 | 0.00 | 0.00 | 63 | 1011.5 |
| 20260901134530 | -17 | 0 | 0.0 | 0.0 | 0.00 | 0.00 | 0.00 | 100 | |
| 20260901133107 | 12 | 225 | 0.0 | 3.2 | 0.00 | 0.00 | 0.00 | 59 | 1011.2 |
| 20260901131606 | 12 | 225 | 1.6 | 3.2 | 0.00 | 0.00 | 0.00 | 58 | 1011.2 |
| 20260901130030 | 12 | 234 | 1.6 | 3.2 | 0.00 | 0.00 | 0.00 | 57 | 1011.1 |
| 20260901124529 | 12 | 242 | 1.6 | 3.2 | 0.00 | 0.00 | 0.00 | 56 | 1010.9 |
| 20260901123030 | 12 | 228 | 3.2 | 4.8 | 0.00 | 0.00 | 0.00 | 55 | 1010.9 |
| 20260901121608 | -17 | 0 | 0.0 | 0.0 | 0.00 | 0.00 | 0.00 | 100 | |
| 20260901120028 | 12 | 227 | 1.6 | 4.8 | 0.00 | 0.00 | 0.00 | 53 | 1011.0 |
| 20260901114532 | 12 | 225 | 3.2 | 4.8 | 0.00 | 0.00 | 0.00 | 53 | 1011.1 |
| 20260901113030 | 12 | 225 | 3.2 | 4.8 | 0.00 | 0.00 | 0.00 | 53 | 1010.9 |
| 20260901110030 | 13 | 225 | 3.2 | 3.2 | 0.00 | 0.00 | 0.00 | 51 | 1011.0 |
| 20260901104531 | 13 | 230 | 3.2 | 4.8 | 0.00 | 0.00 | 0.00 | 51 | 1010.9 |
| 20260901103031 | 13 | 226 | 1.6 | 4.8 | 0.00 | 0.00 | 0.00 | 51 | 1010.9 |
| 20260901101530 | 13 | 236 | 3.2 | 4.8 | 0.00 | 0.00 | 0.00 | 51 | 1011.0 |
| 20260901100030 | 13 | 225 | 0.0 | 1.6 | 0.00 | 0.00 | 0.00 | 48 | 1011.0 |
| 20260901094531 | 13 | 227 | 3.2 | 4.8 | 0.00 | 0.00 | 0.00 | 47 | 1011.0 |
| 20260901093029 | 13 | 228 | 3.2 | 6.4 | 0.00 | 0.00 | 0.00 | 47 | 1010.9 |
| 20260901084530 | -17 | 0 | 0.0 | 0.0 | 0.00 | 0.00 | 0.00 | 100 | |
| 20260901083030 | 15 | 229 | 3.2 | 6.4 | 0.00 | 0.00 | 0.00 | 43 | 1011.2 |
| 20260901081531 | 15 | 230 | 3.2 | 6.4 | 0.00 | 0.00 | 0.00 | 42 | 1011.1 |
| 20260901073031 | -17 | 0 | 0.0 | 0.0 | 0.00 | 0.00 | 0.00 | 100 | |
| 20260901071556 | 16 | 226 | 3.2 | 6.4 | 0.00 | 0.00 | 0.00 | 41 | 1011.0 |
| 20260901070107 | 16 | 228 | 3.2 | 6.4 | 0.00 | 0.00 | 0.00 | 40 | 1011.1 |
| 20260901063144 | 16 | 232 | 3.2 | 8.0 | 0.00 | 0.00 | 0.00 | 40 | 1011.3 |
| 20260901061530 | 16 | 224 | 3.2 | 6.4 | 0.00 | 0.00 | 0.00 | 41 | 1011.4 |
| 20260901060032 | 16 | 241 | 3.2 | 4.8 | 0.00 | 0.00 | 0.00 | 40 | 1011.4 |
| 20260901053031 | 17 | 238 | 3.2 | 4.8 | 0.00 | 0.00 | 0.00 | 37 | 1011.4 |
| 20260901051532 | 18 | 226 | 4.8 | 8.0 | 0.00 | 0.00 | 0.00 | 37 | 1011.5 |
| 20260901050033 | 18 | 227 | 4.8 | 6.4 | 0.00 | 0.00 | 0.00 | 37 | 1011.4 |
| 20260901044530 | 18 | 224 | 4.8 | 6.4 | 0.00 | 0.00 | 0.00 | 37 | 1011.3 |
| 20260901043030 | 19 | 225 | 3.2 | 6.4 | 0.00 | 0.00 | 0.00 | 38 | 1011.3 |
| 20260901041536 | 18 | 235 | 3.2 | 4.8 | 0.00 | 0.00 | 0.00 | 38 | 1011.3 |
| 20260901034529 | -17 | 0 | 0.0 | 0.0 | 0.00 | 0.00 | 0.00 | 100 | |
| 20260901033033 | 28 | 180 | 1.6 | 27.4 | 0.00 | 0.00 | 0.00 | 22 | 1010.4 |